Regional Weather Roundup
Issued by NWS

Home | Current Version | Previous Version | Text Only | Print | Product List | Glossary On
Versions: 1 2 3 4 5 6 7 8 9 10 11 12 13 14 15 16 17 18 19 20 21 22 23 24 25 26 27 28 29 30 31 32 33 34 35 36 37 38 39 40 41 42 43 44 45 46 47 48 49 50
000
ASUS43 KMKX 080721
RWRWI

WISCONSIN REGIONAL WEATHER ROUNDUP
NATIONAL WEATHER SERVICE MILWAUKEE/SULLIVAN WI
200 AM CDT WED JUL 08 2015

NOTE: "FAIR" INDICATES FEW OR NO CLOUDS BELOW 12,000 FEET WITH NO
SIGNIFICANT WEATHER AND/OR OBSTRUCTIONS TO VISIBILITY.

WIZ001-002-006>008-014>016-023>028-080800-
NORTHWEST WISCONSIN

CITY           SKY/WX    TMP DP  RH WIND       PRES   REMARKS
SUPERIOR ARPT  CLEAR     53  49  87 SW6       30.09S
ASHLAND        CLEAR     45  45 100 SW3       30.10F
HAYWARD        CLEAR     47  44  90 CALM      30.12S
SIREN          CLEAR     48  45  91 CALM      30.11F
CUMBERLAND     CLEAR     48  46  93 CALM      30.13S
RICE LAKE      FOG       49  48  95 CALM      30.14S VSB 1/2
CHETEK         NOT AVBL
LADYSMITH      CLEAR     47  45  93 CALM      30.15R
EAU CLAIRE     MOCLDY    52  49  89 CALM      30.12R
MENOMONIE      MOCLDY    55  54  95 CALM      30.12S
NEW RICHMOND   PTCLDY    52  52 100 CALM      30.12F
OSCEOLA        CLEAR     51  51 100 CALM      30.14F
$$

WIZ003>005-009-010-017-018-080800-
NORTH CENTRAL WISCONSIN

CITY           SKY/WX    TMP DP  RH WIND       PRES   REMARKS
MANITOWISH WTR CLEAR     42  42 100 CALM      30.12F
ARBOR VITAE    CLEAR     45  43  93 CALM      30.13S
WOODRUFF       CLEAR     45  43  93 CALM      30.13S
RHINELANDER    CLEAR     44  42  93 CALM      30.14S
EAGLE RIVER      N/A     43  43 100 CALM      30.13S
LAND O LAKES   CLEAR     40  40 100 CALM      30.14S
PHILLIPS       CLEAR     44  44  99 CALM      30.12F
TOMAHAWK       CLEAR     42  41  97 CALM      30.14S
MEDFORD        PTCLDY    46  46  97 E3        30.14R
MERRILL        CLEAR     42  42 100 CALM      30.14S
$$

WIZ029-030-035-036-043>047-080800-
CENTRAL WISCONSIN

CITY           SKY/WX    TMP DP  RH WIND       PRES   REMARKS
WAUSAU         CLEAR     51  48  89 E3        30.12R
MOSINEE        PTCLDY    50  46  87 CALM      30.14S
MARSHFIELD     PTCLDY    54  47  77 CALM      30.13R
STEVENS POINT  PTCLDY    47  46  97 CALM      30.13S
WAUPACA        CLEAR     50  50  97 CALM      30.13S
WAUTOMA        CLEAR     49  49 100 CALM      30.13S
WISC RAPIDS    PTCLDY    50  48  93 CALM      30.13S
CAMP DOUGLAS   PTCLDY    48  48 100 CALM      30.12R FOG
$$

WIZ011>013-019>022-031-037>040-048>050-080800-
NORTHEAST WISCONSIN

CITY           SKY/WX    TMP DP  RH WIND       PRES   REMARKS
ANTIGO         CLEAR     45  45 100 CALM      30.14F
SHAWANO        CLEAR     56  50  80 S5        30.14R
OCONTO         CLEAR     47  47 100 CALM      30.13S
STURGEON BAY   CLEAR     50  45  81 CALM      30.15S
GREEN BAY      CLEAR     52  50  93 CALM      30.13F
MANITOWOC      CLEAR     49  48  97 MISG      30.13F
APPLETON       CLEAR     54  48  82 CALM      30.14S
CLINTONVILLE   CLEAR     50  50 100 CALM      30.13R
OSHKOSH        CLEAR     51  48  89 CALM      30.12F
$$

WIZ032>034-041-042-053>061-080800-
SOUTHWEST WISCONSIN

CITY           SKY/WX    TMP DP  RH WIND       PRES   REMARKS
LA CROSSE      MOCLDY    61  55  81 CALM      30.10S
SPARTA         MOCLDY    55  53  91 CALM      30.12S
VIROQUA        MOCLDY    59  53  80 CALM      30.12S
BOSCOBEL       MOCLDY    53  52  96 CALM      30.12S
PRAIRIE DU CHI MOCLDY    53  50  89 CALM      30.12S
PLATTEVILLE    MOCLDY    54  50  85 CALM      30.12S
$$

WIZ056-057-062-063-064-067-068-080800-
SOUTH CENTRAL WISCONSIN

CITY           SKY/WX    TMP DP  RH WIND       PRES   REMARKS
REEDSBURG      CLEAR     56  55  96 CALM      30.11S
BARABOO/DELLS  CLEAR     53  50  89 CALM      30.12S
LONE ROCK      PTCLDY    56  53  90 CALM      30.12S
MINERAL POINT  MOCLDY    55  50  82 CALM      30.12S
MADISON        PTCLDY    57  51  80 S7        30.12R
MIDDLETON      PTCLDY    55  54  96 CALM      30.13R
WATERTOWN      PTCLDY    49  49 100 CALM      30.12S
MONROE         MOCLDY    54  52  94 SE3       30.12S
JANESVILLE     PTCLDY    54  52  94 CALM      30.12S
$$

WIZ051-052-058>065-066-070>072-080800-
SOUTHEAST WISCONSIN

CITY           SKY/WX    TMP DP  RH WIND       PRES   REMARKS
MILWAUKEE      MOCLDY    55  47  74 N3        30.12S
WAUKESHA       MOCLDY    46  45  93 CALM      30.14S
MILWAUKEE/TIMM PTCLDY    52  45  76 CALM      30.14S
RACINE         PTCLDY    55  47  74 N3        30.14R
BURLINGTON     MOCLDY    46  46  99 CALM      30.13S
KENOSHA        MOCLDY    48  46  93 NW5       30.12S
FOND DU LAC    CLEAR     50  48  93 CALM      30.13S
SHEBOYGAN      CLEAR     50  48  93 CALM      30.12F
WEST BEND      PTCLDY    46  45  93 CALM      30.12S
JUNEAU         PTCLDY    51  49  94 CALM      30.13S
$$

LSZ147-162-080800-
LAKE SUPERIOR

STATION/POSITION TIME  TEMP    WIND        PRES    WAVE
                       AIR SEA DIR/SP/G            HT/PER
                 (UTC) (F)     (DEG/KT/KT) (MB)    (FT/S)
W MID LAKE BUOY  0650   47 40  200/  6/  8 1018.8F   0
DEVILS ISLAND    0700   62     190/  8/  9 1018.7F
PORT WING        0600   56     140/  3/  6 1019.0F
SAXON HARBOR     0600   53     190/  6/  7 1019.0S
$$

LMZ867-665-643>646-080800-
LAKE MICHIGAN

STATION/POSITION TIME  TEMP    WIND        PRES    WAVE
                       AIR SEA DIR/SP/G            HT/PER
                 (UTC) (F)     (DEG/KT/KT) (MB)    (FT/S)
CHAMBERS ISLAND  0600   52     180/  1/  3 1020.3R
S GREEN BAY BUOY 0500   61 68  140/ 10/ 12 1021.3R
N MID LAKE BUOY  0550   54 50     CALM     1019.9R   1
NORTHPORT PIER   0600   53        CALM     1020.0R
SISTER BAY       0614   52        CALM       N/A
ALGOMA LAKESHORE 0626          300/  3/  5   N/A
KEWAUNEE LAKESHO 0600   50     300/  3/  5 1019.4F
SHEBOYGAN LAKESH 0700   56     360/  3/  3 1020.3F
PORT WASHINGTON  0600   57     320/  4/  7 1020.7
ATWATER BUOY     0700   58 59   20/  6/  8 1021.3S
MILWAUKEE LAKESH 0700   58      10/  5/  6   N/A
KENOSHA   LAKESH 0700   58     360/  7/ 10 1019.6S
$$

TC  - TEMPERATURE IN CELSIUS
VSB - VISIBILITY IN STATUTE MILES
WCI - WIND CHILL INDEX
HX  - HEAT INDEX



USA.gov is the U.S. government's official web portal to all federal, state and local government web resources and services.